Showing default

NAVSTAR 76 (USA 266), 41328

Orbit data source: Space-Track

NAVSTAR 76 (USA 266), 41328 is a payload satellite owned by USAF SMC (US) in MEO that was launched on Fri, 05 Feb 2016 UTC via an ATLAS V 401 launch vehicle from the Air Force Eastern Test Range (AFETR). Payloads include a variety of satellites, spacecraft, and rockets equipped with specific instruments for various scientific and technological missions. These include communications satellites like Starlink; space stations such as the ISS; scientific satellites like the Hubble; Earth observation satellites from companies like Planet Labs, Umbra, and HawkEye 360; GPS; miniature CubeSats for education and research; and military/defense satellites.

Loading next visibility...
NAVSTAR 76 (USA 266) details
Identifier
41328, 2016-007A
Orbit
MEO
Last TLE update17 hours ago
Origin
Flag of USUSAF SMC (US)
ManufacturerBoeing/ES
MissionOperational Defense Navigation
Bus & MotorGPS IIF, AOCS
Mass1,630 kg wet, ~1,500 kg dry
Launch date (UTC)
2016-02-05 (9 years ago)
Launch vehicle
ATLAS V 401
Launch site
Air Force Eastern Test Range (AFETR)
Object type
Payload
Rocket body
Debris
Shape & HBRBox + 2 Pan, Unknown HBR
Radar Cross Section13.960 m², Large (>1 m²)

Expand to show TLE details & history

TLE from 17 hours ago
0 NAVSTAR 76 (USA 266)
1 41328U 16007A   24348.43465758 -.00000009  00000-0  00000-0 0  9995
2 41328  55.2072 111.3279 0083574 239.2810 119.8588  2.00552943 64793
Epoch: 2024-12-13T10:25Z
Definitive object data (Epoch: 2024-12-13T10:25:54.414Z)
Latitude-0.00007°
Longitude-127.76391°
Altitude20,295.592 km
Speed3.858 km/s
True Right ascension07h 25m 15s
True Declination0° 00' 00"
Sunlit
Object was in daylight at TLE epoch
Visualization TLE readout
Latitude24.71051°
Longitude33.59578°
Altitude20,181.299 km
Speed3.875 km/s
Apparent Right ascension17h 33m 01s
Apparent Declination14° 43' 12"
Sunlit
Object is in daylight
Visualization observer readout
Local Sidereal Time01:58:07
Azimuth305.789° NW
Elevation-16.015°
Doppler factor1
Orbital elements
Apogee altitude20,405.132 km
Perigee altitude19,961.166 km
Semi-major axis26,561.286 km
Eccentricity0.0083574
Inclination55.2072°
RAAN111.3279°
Arg. of periapsis239.281°
True anomaly120.68503°
Mean anomaly119.8588°
Eccentric anomaly120.27235°
Mean motion0.50138 °/min
BSTARUnknown
Orbital period718.01 mins
Loading maneuver chart data...
Loading historical data...
Loading historical data...
Loading historical data...
Loading historical data...
Loading historical data...
Loading historical data...
Loading historical data...
Other satellites on launch #7 in the year 2016 (2016-02-05 UTC)

NAVSTAR 76 (USA 266) Visibility forecast

Observer location: undefined°, undefined

Span
Click to sort rows by Start time (UTC) header in descending order
Start Az.
Max El. time (UTC)
Max El. Az.
Max El.
End time (UTC)
End Az.
395 mins2024-12-14 09:28:24.500Z205.756° SW2024-12-14 12:23:24.500Z314.65° NW44.489°2024-12-14 16:03:24.500Z99.231° ESE
|